Printer-friendly version
Follow the MPC on Twitter Follow the MPC on Facebook The MPC blog
Minor Planet Center

MPEC 2000-P30 : 2000 PF5

The following Minor Planet Electronic Circular may be linked-to from your own Web pages, but must not otherwise be redistributed electronically.

A form allowing access to any MPEC is at the bottom of this page.


Read MPEC 2000-P29 Read MPEC 2000-P31


M.P.E.C. 2000-P30                                Issued 2000 Aug. 7, 14:16 UT

     The Minor Planet Electronic Circulars contain information on unusual
         minor planets and routine data on comets.  They are published
   on behalf of Commission 20 of the International Astronomical Union by the
          Minor Planet Center, Smithsonian Astrophysical Observatory,
                          Cambridge, MA 02138, U.S.A.

             Prepared using the Tamkin Foundation Computer Network

             BMARSDEN@CFA.HARVARD.EDU or GWILLIAMS@CFA.HARVARD.EDU
          URL http://cfa-www.harvard.edu/iau/mpc.html  ISSN 1523-6714

                                   2000 PF5

Observations:
     K00P05F* C2000 08 01.31059 20 48 21.83 -13 30 13.2          18.9        704
     K00P05F  C2000 08 01.32513 20 48 22.37 -13 29 43.9          18.1        704
     K00P05F  C2000 08 01.33966 20 48 22.89 -13 29 15.0          18.7        704
     K00P05F  C2000 08 01.35460 20 48 23.43 -13 28 44.9          18.2        704
     K00P05F  C2000 08 01.36914 20 48 23.94 -13 28 15.5          18.2        704
     K00P05F  C2000 08 01.90549 20 48 50.62 -13 10 20.2                      557
     K00P05F  C2000 08 01.90712 20 48 50.71 -13 10 17.0                      557
     K00P05F  C2000 08 01.90895 20 48 50.78 -13 10 13.1                      557
     K00P05F  C2000 08 01.91097 20 48 50.84 -13 10 09.0          18.1 V      557
     K00P05F  C2000 08 01.93037 20 48 51.63 -13 09 29.3          17.4 R      046
     K00P05F  C2000 08 01.93209 20 48 51.68 -13 09 25.5                      046
     K00P05F  C2000 08 01.93304 20 48 51.74 -13 09 23.7                      046
     K00P05F  C2000 08 01.93411 20 48 51.75 -13 09 21.7                      046
     K00P05F tC2000 08 02.12049 20 49 01.33 -13 02 19.2                      808
     K00P05F tC2000 08 02.14977 20 49 02.41 -13 01 22.8                      808
     K00P05F  C2000 08 02.22305 20 49 06.26 -12 59 25.1          18.3        704
     K00P05F  C2000 08 02.23727 20 49 06.85 -12 58 55.6          18.3        704
     K00P05F  C2000 08 02.25152 20 49 07.32 -12 58 26.2          18.3        704
     K00P05F  C2000 08 02.26575 20 49 07.82 -12 57 57.5          18.5        704
     K00P05F  C2000 08 02.27498 20 49 08.12 -12 57 38.0                      711
     K00P05F  C2000 08 02.28000 20 49 08.37 -12 57 27.2          18.4        704
     K00P05F  C2000 08 02.28069 20 49 08.33 -12 57 26.2                      711
     K00P05F  C2000 08 02.28566 20 49 08.49 -12 57 16.2                      711
     K00P05F 1C2000 08 02.37012 20 49 12.29 -12 54 27.2                      658
     K00P05F 1C2000 08 02.38007 20 49 12.68 -12 54 06.0                      658
     K00P05F  C2000 08 02.89057 20 49 38.80 -12 36 22.0          18.0 R      163
     K00P05F  C2000 08 02.90168 20 49 39.34 -12 35 58.8          17.9 R      163
     K00P05F  C2000 08 02.92365 20 49 40.23 -12 35 12.5          18.2 R      163
     K00P05F  C2000 08 02.92759 20 49 40.30 -12 35 05.3          17.9 R      163
     K00P05F  C2000 08 03.08953 20 49 48.37 -12 28 47.3          19.0 V      859
     K00P05F  C2000 08 03.09142 20 49 48.42 -12 28 45.8          18.0 V      859
     K00P05F  C2000 08 03.09338 20 49 48.49 -12 28 40.4          18.7 V      859
     K00P05F  C2000 08 03.22218 20 49 55.41 -12 24 35.1          18.2        704
     K00P05F  C2000 08 03.23647 20 49 55.94 -12 24 05.2          18.2        704
     K00P05F  C2000 08 03.25075 20 49 56.51 -12 23 34.3          18.4        704
     K00P05F  C2000 08 03.26495 20 49 57.09 -12 23 04.2          18.8        704
     K00P05F  C2000 08 03.27917 20 49 57.65 -12 22 34.7          18.4        704
     K00P05F  C2000 08 03.28276 20 49 57.68 -12 22 26.3                      711
     K00P05F  C2000 08 03.28773 20 49 57.87 -12 22 15.8                      711
     K00P05F  C2000 08 03.29260 20 49 58.06 -12 22 05.3                      711
     K00P05F  C2000 08 03.31399 20 49 59.13 -12 21 21.0          19.0 R      854
     K00P05F  C2000 08 03.31740 20 49 59.16 -12 21 14.4          18.7 R      854
     K00P05F  C2000 08 03.32027 20 49 59.40 -12 21 07.4          19.0 R      854
     K00P05F  C2000 08 03.46979 20 50 08.29 -12 15 10.7          18.4        422
     K00P05F  C2000 08 03.57453 20 50 11.76 -12 11 20.0          16.9 R      474
     K00P05F  C2000 08 03.57823 20 50 11.90 -12 11 11.9          17.1 R      474
     K00P05F  C2000 08 04.21156 20 50 45.99 -11 48 56.7          18.1        704
     K00P05F  C2000 08 04.21812 20 50 46.30 -11 48 42.5          18.0        704
     K00P05F  C2000 08 04.21832 20 50 46.36 -11 48 42.7          18.4        704
     K00P05F  C2000 08 04.22572 20 50 46.58 -11 48 26.6          18.2        704
     K00P05F  C2000 08 04.23370 20 50 46.99 -11 48 09.6          18.3        704
     K00P05F  C2000 08 04.23390 20 50 46.94 -11 48 08.3          18.5        704
     K00P05F  C2000 08 04.23985 20 50 47.19 -11 47 54.6          18.4        704
     K00P05F  C2000 08 04.27859 20 50 48.81 -11 46 30.2          17.9        704
     K00P05F  C2000 08 04.27879 20 50 48.80 -11 46 30.0          18.1        704
     K00P05F  C2000 08 04.69078 20 51 08.92 -11 30 40.3          18.1        422
     K00P05F  C2000 08 04.98809 20 51 25.90 -11 20 16.5                      611
     K00P05F  C2000 08 04.99209 20 51 26.16 -11 20 07.6                      611
     K00P05F  C2000 08 05.25662 20 51 40.96 -11 10 04.0                      711
     K00P05F  C2000 08 05.26134 20 51 41.14 -11 09 53.2                      711
     K00P05F  C2000 08 05.26612 20 51 41.34 -11 09 42.2                      711
     K00P05F  C2000 08 05.66317 20 52 02.15 -10 54 36.3                      402
     K00P05F  C2000 08 05.66477 20 52 02.24 -10 54 31.6          18.5 V      402
     K00P05F  C2000 08 05.66638 20 52 02.39 -10 54 28.3                      402
     K00P05F  C2000 08 05.66799 20 52 02.48 -10 54 25.3                      402
     K00P05F  C2000 08 06.28490 20 52 37.98 -10 30 31.4                      670
     K00P05F  C2000 08 06.33478 20 52 40.21 -10 28 34.7                      670
     K00P05F  C2000 08 06.40093 20 52 43.09 -10 25 58.1                      670
     K00P05F  C2000 08 06.92895 20 53 14.58 -10 05 12.6                      557
     K00P05F  C2000 08 06.93093 20 53 14.71 -10 05 07.8                      557

Observer details:
046 Klet.  Observer M. Tichy.  0.57-m f/5.2 reflector + CCD.
163 Roeser Observatory, Luxembourg.  Observer M. Dawson.  0.457-m f/4.5
    reflector + CCD.
402 Dynic Astronomical Observatory.  Observer A. Sugie.  0.60-m f/3.7 reflector
    + CCD.
422 Loomberah.  Observer G. J. Garradd.  0.45-m f/5.4 reflector + CCD.
474 Mount John Observatory, Lake Tekapo.  Observers A. C. Gilmore, A. P.
    Marles.  1.0-m f/7.7 reflector + CCD.
557 Ondrejov.  Observer L. Sarounova.  0.65-m f/3.6 reflector + CCD.
611 Starkenburg.  Observers S. Kluegl, M. Busch, R. Stoss.  0.45-m f/4.4
    reflector + CCD.
658 National Research Council of Canada.  Observer D. D. Balam.  1.82-m
    Plaskett reflector + CCD.
670 Camarillo.  Observer J. E. Rogers.  0.30-m f/6.7 Helin Telescope + CCD.
704 Lincoln Laboratory ETS, New Mexico.  Observers M. Blythe, F. Shelly,
    M. Bezpalko, M. Elowitz, R. Huber, L. Manguso.  Measurers J. Stuart,
    R. Sayer, J. B. Evans, H. Viggh.  1.0-m f/2.15 reflector + CCD.
711 McDonald Observatory.  Observers P. J. Shelus, J. G. Ries.  0.76-m
    reflector + CCD.
808 El Leoncito.  Observers C. E. Lopez, H. S. Lepez, R. Gil Hutton,
    J. A. Vicentela.  0.5-m f/7.5 double astrograph + CCD.
854 Sabino Canyon Observatory, Tucson.  Observer J. E. McGaha.  0.30-m f/6.1
    Schmidt-Cassegrain + CCD.
859 Wykrota Observatory-CEAMIG.  Observers C. Jacques, J. Amancio, L. Duczmal.
    0.3-m f/3.3 Schmidt-Cassegrain + CCD.

Orbital elements:
2000 PF5
Epoch 2000 Aug. 4.0 TT = JDT 2451760.5                  Hergenrother
M 353.17121              (2000.0)            P               Q
n   0.16712805     Peri.   49.31498     +0.98353379     +0.15572508
a   3.2641478      Node   301.53899     -0.18040600     +0.87609744
e   0.6449100      Incl.    6.17736     +0.01072197     +0.45629263
P   5.90           H   20.3           G   0.15
From 70 observations 2000 Aug. 1-6.

Ephemeris:
2000 PF5                 a,e,i = 3.26, 0.64, 6                   q = 1.1591
Date    TT    R. A. (2000) Decl.     Delta      r     Elong.  Phase     V
2000 08 04    20 50.57   -11 56.3    0.256    1.269   174.5     4.4    18.2
2000 08 14    21 01.24   -04 51.8    0.215    1.224   167.3    10.5    18.1
2000 08 24    21 17.61   +04 08.9    0.188    1.189   159.5    17.3    18.0
2000 09 03    21 41.62   +14 12.0    0.176    1.167   152.6    23.4    18.0
2000 09 13    22 13.88   +23 30.1    0.177    1.159   147.7    27.7    18.1
2000 09 23    22 51.76   +30 17.3    0.190    1.165   145.6    29.1    18.3
2000 10 03    23 30.29   +33 51.6    0.214    1.185   146.3    27.9    18.6
2000 10 13    00 05.10   +34 42.5    0.249    1.217   148.8    25.1    18.9
2000 10 23    00 34.10   +33 47.2    0.294    1.261   151.5    22.1    19.2
2000 11 02    00 57.77   +31 58.1    0.351    1.314   152.9    20.1    19.6
2000 11 12    01 17.74   +29 55.4    0.421    1.375   151.7    19.9    20.1
2000 11 22    01 35.37   +28 02.3    0.506    1.442   148.1    21.2    20.7
2000 12 02    01 51.80   +26 29.7    0.606    1.514   142.9    23.1    21.2
2000 12 12    02 07.76   +25 21.3    0.721    1.589   136.9    25.1    21.8
2000 12 22    02 23.59   +24 35.3    0.851    1.667   130.5    26.7    22.3
2001 01 01    02 39.55   +24 08.3    0.994    1.745   123.9    27.9    22.7

Carl W. Hergenrother         (C) Copyright 2000 MPC           M.P.E.C. 2000-P30

Read MPEC 2000-P29 Read MPEC 2000-P31


MPEC number:

Enter an MPEC number in one of the following forms:

  • 1997-B01 (the full form)
  • J97B01 (the packed version of the full form)
  • B01 (the abbreviated form)

Valid HTML 4.01!